Location: Beuerbach
(48.1459°N, 10.9174°E)
Time: 15:00:58
(UTC+00:00)

Cosmos 1295 Rocket - Pass Details

Date: 23 May 2024
Orbit: 944 x 992 km, 82.9° (Epoch: 24 April)

Event Time Altitude Azimuth Distance (km) Brightness Sun altitude
Exits shadow 02:38:50 - 195° (SSW) 3,343 6.8 -7.3°
Maximum altitude 02:46:42 71° 281° (W) 1,002 4.5 -6.3°
Drops below altitude 10° 02:52:47 10° 5° (N) 2,675 7.5 -5.5°
Sets 02:55:18 0° 8° (N) 3,623 8.3 -5.2°
